Overview Statistics Trail Chart Weather Telemetry Raw packets
 

This is the latest recevied weather packets stored in our database for station/object N9BLE. If no packets are shown the sender has not sent any weather packets the latest 10 day(s).

<< 20 21 22 23 24 25 26 >>
Time Temp. Humidity Pressure Rain* Wind** Luminosity Snow
1777903879 16.11° C 63% 1006.9 hPa 0 mm - 140 W/m² -
1777903575 15.56° C 64% 1007 hPa 0 mm - 45 W/m² -
1777903271 15.56° C 68% 1007 hPa 0 mm - 48 W/m² -
1777902968 15° C 68% 1007 hPa 0 mm - 57 W/m² -
1777902664 15° C 70% 1006.8 hPa 0 mm - 43 W/m² -
1777902362 14.44° C 70% 1007 hPa 0 mm - 55 W/m² -
1777902058 13.89° C 72% 1007.1 hPa 0 mm - 43 W/m² -
1777901757 13.89° C 72% 1007 hPa 0 mm - 93 W/m² -
1777901454 13.89° C 74% 1007.2 hPa 0 mm - 44 W/m² -
1777901151 13.33° C 74% 1007.2 hPa 0 mm - 54 W/m² -
1777900849 13.33° C 75% 1007.4 hPa 0 mm - 90 W/m² -
1777900546 12.78° C 75% 1007.3 hPa 0 mm - 79 W/m² -
1777900243 12.78° C 77% 1007.6 hPa 0 mm - 51 W/m² -
1777899939 12.78° C 76% 1007.4 hPa 0 mm - 41 W/m² -
1777899637 12.22° C 77% 1007.5 hPa 0 mm - 107 W/m² -
1777899334 12.22° C 77% 1007.5 hPa 0 mm - 196 W/m² -
1777899032 11.67° C 78% 1007.6 hPa 0 mm - 182 W/m² -
1777898728 11.67° C 79% 1007.6 hPa 0 mm - 167 W/m² -
1777898426 11.11° C 80% 1007.5 hPa 0 mm - 153 W/m² -
1777898124 11.11° C 80% 1007.4 hPa 0 mm - 140 W/m² -
1777897820 10.56° C 81% 1007.5 hPa 0 mm - 127 W/m² -
1777897516 10° C 83% 1007.4 hPa 0 mm - 115 W/m² -
1777897212 10° C 83% 1007.4 hPa 0 mm - 104 W/m² -
1777896908 9.44° C 84% 1007.5 hPa 0 mm - 69 W/m² -
1777896606 8.89° C 84% 1007.3 hPa 0 mm - 81 W/m² -

* Rain latest hour (hover to see other rain measurements)
** Current wind speed in m/s (hover to see current wind gust speed)